Terminal Aerodrome Forecast
Issued by NWS

Home | Current Version | Previous Version | Graphics & Text | Print | Product List | Glossary On
Versions: 1 2 3 4 5 6 7 8 9 10 11 12 13 14 15 16 17
000
FTUS43 KBIS 120500
TAFMOT
TAF
KMOT 120524Z 1206/1306 VRB05KT P6SM BKN070
     FM121400 23007KT P6SM SCT060
     FM121900 23012KT P6SM SKC
     FM130100 VRB04KT P6SM SKC=

USA.gov is the U.S. government's official web portal to all federal, state and local government web resources and services.